Year,Month,Day,Hour,Minute,Value (Times are PST for temperature in C)
2011,09,20,00,00,9.30
2011,09,20,00,01,9.20
2011,09,20,00,02,9.20
2011,09,20,00,03,9.20
2011,09,20,00,04,9.20
2011,09,20,00,05,9.20
2011,09,20,00,06,9.20
2011,09,20,00,07,9.20
2011,09,20,00,08,9.20
2011,09,20,00,09,9.20
2011,09,20,00,10,9.20
2011,09,20,00,11,9.20
2011,09,20,00,12,9.20
2011,09,20,00,13,9.10
2011,09,20,00,14,9.10
2011,09,20,00,15,9.10
2011,09,20,00,16,9.10
2011,09,20,00,17,9.10
2011,09,20,00,18,9.00
2011,09,20,00,19,9.00
2011,09,20,00,20,9.00
2011,09,20,00,21,8.90
2011,09,20,00,22,8.90
2011,09,20,00,23,8.90
2011,09,20,00,24,8.90
2011,09,20,00,25,8.90
2011,09,20,00,26,8.90
2011,09,20,00,27,8.90
2011,09,20,00,28,8.90
2011,09,20,00,29,8.90
2011,09,20,00,30,8.80
2011,09,20,00,31,8.80
2011,09,20,00,32,8.80
2011,09,20,00,33,8.80
2011,09,20,00,34,8.80
2011,09,20,00,35,8.80
2011,09,20,00,36,8.80
2011,09,20,00,37,8.80
2011,09,20,00,38,8.80
2011,09,20,00,39,8.80
2011,09,20,00,40,8.80
2011,09,20,00,41,8.80
2011,09,20,00,42,8.80
2011,09,20,00,43,8.80
2011,09,20,00,44,8.80
2011,09,20,00,45,8.80
2011,09,20,00,46,8.80
2011,09,20,00,47,8.70
2011,09,20,00,48,8.70
2011,09,20,00,49,8.70
2011,09,20,00,50,8.70
2011,09,20,00,51,8.70
2011,09,20,00,52,8.60
2011,09,20,00,53,8.60
2011,09,20,00,54,8.60
2011,09,20,00,55,8.60
2011,09,20,00,56,8.60
2011,09,20,00,57,8.60
2011,09,20,00,58,8.50
2011,09,20,00,59,8.50
2011,09,20,01,00,8.50
2011,09,20,01,01,8.50
2011,09,20,01,02,8.50
2011,09,20,01,03,8.50
2011,09,20,01,04,8.50
2011,09,20,01,05,8.40
2011,09,20,01,06,8.40
2011,09,20,01,07,8.40
2011,09,20,01,08,8.40
2011,09,20,01,09,8.40
2011,09,20,01,10,8.40
2011,09,20,01,11,8.30
2011,09,20,01,12,8.30
2011,09,20,01,13,8.30
2011,09,20,01,14,8.30
2011,09,20,01,15,8.30
2011,09,20,01,16,8.30
2011,09,20,01,17,8.30
2011,09,20,01,18,8.30
2011,09,20,01,19,8.30
2011,09,20,01,20,8.30
2011,09,20,01,21,8.20
2011,09,20,01,22,8.20
2011,09,20,01,23,8.20
2011,09,20,01,24,8.20
2011,09,20,01,25,8.20
2011,09,20,01,26,8.20
2011,09,20,01,27,8.20
2011,09,20,01,28,8.20
2011,09,20,01,29,8.10
2011,09,20,01,30,8.10
2011,09,20,01,31,8.10
2011,09,20,01,32,8.10
2011,09,20,01,33,8.10
2011,09,20,01,34,8.10
2011,09,20,01,35,8.00
2011,09,20,01,36,8.00
2011,09,20,01,37,8.00
2011,09,20,01,38,8.00
2011,09,20,01,39,7.90
2011,09,20,01,40,7.90
2011,09,20,01,41,7.90
2011,09,20,01,42,7.90
2011,09,20,01,43,7.90
2011,09,20,01,44,7.90
2011,09,20,01,45,7.80
2011,09,20,01,46,7.80
2011,09,20,01,47,7.80
2011,09,20,01,48,7.80
2011,09,20,01,49,7.80
2011,09,20,01,50,7.80
2011,09,20,01,51,7.70
2011,09,20,01,52,7.70
2011,09,20,01,53,7.70
2011,09,20,01,54,7.70
2011,09,20,01,55,7.70
2011,09,20,01,56,7.70
2011,09,20,01,57,7.70
2011,09,20,01,58,7.70
2011,09,20,01,59,7.60
2011,09,20,02,00,7.60
2011,09,20,02,01,7.60
2011,09,20,02,02,7.60
2011,09,20,02,03,7.60
2011,09,20,02,04,7.60
2011,09,20,02,05,7.60
2011,09,20,02,06,7.60
2011,09,20,02,07,7.60
2011,09,20,02,08,7.60
2011,09,20,02,09,7.60
2011,09,20,02,10,7.60
2011,09,20,02,11,7.60
2011,09,20,02,12,7.60
2011,09,20,02,13,7.60
2011,09,20,02,14,7.60
2011,09,20,02,15,7.60
2011,09,20,02,16,7.60
2011,09,20,02,17,7.60
2011,09,20,02,18,7.60
2011,09,20,02,19,7.60
2011,09,20,02,20,7.60
2011,09,20,02,21,7.60
2011,09,20,02,22,7.60
2011,09,20,02,23,7.60
2011,09,20,02,24,7.60
2011,09,20,02,25,7.60
2011,09,20,02,26,7.60
2011,09,20,02,27,7.70
2011,09,20,02,28,7.70
2011,09,20,02,29,7.70
2011,09,20,02,30,7.70
2011,09,20,02,31,7.70
2011,09,20,02,32,7.70
2011,09,20,02,33,7.70
2011,09,20,02,34,7.70
2011,09,20,02,35,7.60
2011,09,20,02,36,7.60
2011,09,20,02,37,7.60
2011,09,20,02,38,7.60
2011,09,20,02,39,7.60
2011,09,20,02,40,7.50
2011,09,20,02,41,7.50
2011,09,20,02,42,7.40
2011,09,20,02,43,7.40
2011,09,20,02,44,7.40
2011,09,20,02,45,7.40
2011,09,20,02,46,7.30
2011,09,20,02,47,7.30
2011,09,20,02,48,7.30
2011,09,20,02,49,7.30
2011,09,20,02,50,7.30
2011,09,20,02,51,7.30
2011,09,20,02,52,7.30
2011,09,20,02,53,7.20
2011,09,20,02,54,7.20
2011,09,20,02,55,7.20
2011,09,20,02,56,7.20
2011,09,20,02,57,7.20
2011,09,20,02,58,7.20
2011,09,20,02,59,7.20
2011,09,20,03,00,7.20
2011,09,20,03,01,7.20
2011,09,20,03,02,7.20
2011,09,20,03,03,7.20
2011,09,20,03,04,7.20
2011,09,20,03,05,7.20
2011,09,20,03,06,7.20
2011,09,20,03,07,7.20
2011,09,20,03,08,7.20
2011,09,20,03,09,7.20
2011,09,20,03,10,7.20
2011,09,20,03,11,7.20
2011,09,20,03,12,7.10
2011,09,20,03,13,7.10
2011,09,20,03,14,7.10
2011,09,20,03,15,7.10
2011,09,20,03,16,7.10
2011,09,20,03,17,7.10
2011,09,20,03,18,7.10
2011,09,20,03,19,7.10
2011,09,20,03,20,7.10
2011,09,20,03,21,7.00
2011,09,20,03,22,7.00
2011,09,20,03,23,7.00
2011,09,20,03,24,6.90
2011,09,20,03,25,6.90
2011,09,20,03,26,6.90
2011,09,20,03,27,6.90
2011,09,20,03,28,6.80
2011,09,20,03,29,6.80
2011,09,20,03,30,6.80
2011,09,20,03,31,6.80
2011,09,20,03,32,6.80
2011,09,20,03,33,6.80
2011,09,20,03,34,6.80
2011,09,20,03,35,6.80
2011,09,20,03,36,6.80
2011,09,20,03,37,6.80
2011,09,20,03,38,6.80
2011,09,20,03,39,6.80
2011,09,20,03,40,6.80
2011,09,20,03,41,6.70
2011,09,20,03,42,6.70
2011,09,20,03,43,6.70
2011,09,20,03,44,6.70
2011,09,20,03,45,6.70
2011,09,20,03,46,6.60
2011,09,20,03,47,6.60
2011,09,20,03,48,6.60
2011,09,20,03,49,6.60
2011,09,20,03,50,6.60
2011,09,20,03,51,6.60
2011,09,20,03,52,6.60
2011,09,20,03,53,6.60
2011,09,20,03,54,6.60
2011,09,20,03,55,6.60
2011,09,20,03,56,6.60
2011,09,20,03,57,6.60
2011,09,20,03,58,6.50
2011,09,20,03,59,6.50
2011,09,20,04,00,6.50
2011,09,20,04,01,6.50
2011,09,20,04,02,6.50
2011,09,20,04,03,6.50
2011,09,20,04,04,6.50
2011,09,20,04,05,6.50
2011,09,20,04,06,6.50
2011,09,20,04,07,6.50
2011,09,20,04,08,6.50
2011,09,20,04,09,6.50
2011,09,20,04,10,6.50
2011,09,20,04,11,6.50
2011,09,20,04,12,6.50
2011,09,20,04,13,6.50
2011,09,20,04,14,6.50
2011,09,20,04,15,6.50
2011,09,20,04,16,6.40
2011,09,20,04,17,6.40
2011,09,20,04,18,6.40
2011,09,20,04,19,6.40
2011,09,20,04,20,6.40
2011,09,20,04,21,6.40
2011,09,20,04,22,6.40
2011,09,20,04,23,6.40
2011,09,20,04,24,6.40
2011,09,20,04,25,6.50
2011,09,20,04,26,6.50
2011,09,20,04,27,6.50
2011,09,20,04,28,6.50
2011,09,20,04,29,6.60
2011,09,20,04,30,6.60
2011,09,20,04,31,6.60
2011,09,20,04,32,6.70
2011,09,20,04,33,6.70
2011,09,20,04,34,6.70
2011,09,20,04,35,6.70
2011,09,20,04,36,6.70
2011,09,20,04,37,6.70
2011,09,20,04,38,6.70
2011,09,20,04,39,6.70
2011,09,20,04,40,6.70
2011,09,20,04,41,6.60
2011,09,20,04,42,6.60
2011,09,20,04,43,6.60
2011,09,20,04,44,6.60
2011,09,20,04,45,6.60
2011,09,20,04,46,6.50
2011,09,20,04,47,6.50
2011,09,20,04,48,6.50
2011,09,20,04,49,6.50
2011,09,20,04,50,6.50
2011,09,20,04,51,6.40
2011,09,20,04,52,6.40
2011,09,20,04,53,6.40
2011,09,20,04,54,6.40
2011,09,20,04,55,6.40
2011,09,20,04,56,6.40
2011,09,20,04,57,6.40
2011,09,20,04,58,6.40
2011,09,20,04,59,6.40
2011,09,20,05,00,6.40
2011,09,20,05,01,6.40
2011,09,20,05,02,6.40
2011,09,20,05,03,6.40
2011,09,20,05,04,6.50
2011,09,20,05,05,6.50
2011,09,20,05,06,6.50
2011,09,20,05,07,6.50
2011,09,20,05,08,6.40
2011,09,20,05,09,6.50
2011,09,20,05,10,6.50
2011,09,20,05,11,6.50
2011,09,20,05,12,6.50
2011,09,20,05,13,6.50
2011,09,20,05,14,6.50
2011,09,20,05,15,6.50
2011,09,20,05,16,6.50
2011,09,20,05,17,6.50
2011,09,20,05,18,6.50
2011,09,20,05,19,6.50
2011,09,20,05,20,6.50
2011,09,20,05,21,6.50
2011,09,20,05,22,6.50
2011,09,20,05,23,6.50
2011,09,20,05,24,6.50
2011,09,20,05,25,6.60
2011,09,20,05,26,6.60
2011,09,20,05,27,6.60
2011,09,20,05,28,6.60
2011,09,20,05,29,6.70
2011,09,20,05,30,6.70
2011,09,20,05,31,6.80
2011,09,20,05,32,6.90
2011,09,20,05,33,7.00
2011,09,20,05,34,7.00
2011,09,20,05,35,7.10
2011,09,20,05,36,7.10
2011,09,20,05,37,7.00
2011,09,20,05,38,7.00
2011,09,20,05,39,7.00
2011,09,20,05,40,6.90
2011,09,20,05,41,6.90
2011,09,20,05,42,6.90
2011,09,20,05,43,6.90
2011,09,20,05,44,6.90
2011,09,20,05,45,6.80
2011,09,20,05,46,6.80
2011,09,20,05,47,6.80
2011,09,20,05,48,6.80
2011,09,20,05,49,6.80
2011,09,20,05,50,6.80
2011,09,20,05,51,6.70
2011,09,20,05,52,6.70
2011,09,20,05,53,6.70
2011,09,20,05,54,6.70
2011,09,20,05,55,6.70
2011,09,20,05,56,6.70
2011,09,20,05,57,6.70
2011,09,20,05,58,6.80
2011,09,20,05,59,6.80
2011,09,20,06,00,6.90
2011,09,20,06,01,6.90
2011,09,20,06,02,7.00
2011,09,20,06,03,7.00
2011,09,20,06,04,7.00
2011,09,20,06,05,7.00
2011,09,20,06,06,7.00
2011,09,20,06,07,7.10
2011,09,20,06,08,7.10
2011,09,20,06,09,7.10
2011,09,20,06,10,7.20
2011,09,20,06,11,7.20
2011,09,20,06,12,7.20
2011,09,20,06,13,7.20
2011,09,20,06,14,7.20
2011,09,20,06,15,7.20
2011,09,20,06,16,7.20
2011,09,20,06,17,7.20
2011,09,20,06,18,7.20
2011,09,20,06,19,7.20
2011,09,20,06,20,7.20
2011,09,20,06,21,7.30
2011,09,20,06,22,7.30
2011,09,20,06,23,7.30
2011,09,20,06,24,7.30
2011,09,20,06,25,7.30
2011,09,20,06,26,7.30
2011,09,20,06,27,7.30
2011,09,20,06,28,7.30
2011,09,20,06,29,7.30
2011,09,20,06,30,7.30
2011,09,20,06,31,7.30
2011,09,20,06,32,7.30
2011,09,20,06,33,7.30
2011,09,20,06,34,7.30
2011,09,20,06,35,7.30
2011,09,20,06,36,7.30
2011,09,20,06,37,7.30
2011,09,20,06,38,7.20
2011,09,20,06,39,7.20
2011,09,20,06,40,7.20
2011,09,20,06,41,7.20
2011,09,20,06,42,7.20
2011,09,20,06,43,7.20
2011,09,20,06,44,7.10
2011,09,20,06,45,7.10
2011,09,20,06,46,7.10
2011,09,20,06,47,7.10
2011,09,20,06,48,7.10
2011,09,20,06,49,7.10
2011,09,20,06,50,7.10
2011,09,20,06,51,7.10
2011,09,20,06,52,7.10
2011,09,20,06,53,7.10
2011,09,20,06,54,7.00
2011,09,20,06,55,7.00
2011,09,20,06,56,7.00
2011,09,20,06,57,7.00
2011,09,20,06,58,6.90
2011,09,20,06,59,6.90
2011,09,20,07,00,6.90
2011,09,20,07,01,7.00
2011,09,20,07,02,7.00
2011,09,20,07,03,7.00
2011,09,20,07,04,7.00
2011,09,20,07,05,7.10
2011,09,20,07,06,7.10
2011,09,20,07,07,7.10
2011,09,20,07,08,7.10
2011,09,20,07,09,7.20
2011,09,20,07,10,7.20
2011,09,20,07,11,7.20
2011,09,20,07,12,7.20
2011,09,20,07,13,7.20
2011,09,20,07,14,7.30
2011,09,20,07,15,7.30
2011,09,20,07,16,7.40
2011,09,20,07,17,7.40
2011,09,20,07,18,7.40
2011,09,20,07,19,7.50
2011,09,20,07,20,7.50
2011,09,20,07,21,7.60
2011,09,20,07,22,7.60
2011,09,20,07,23,7.70
2011,09,20,07,24,7.70
2011,09,20,07,25,7.70
2011,09,20,07,26,7.70
2011,09,20,07,27,7.70
2011,09,20,07,28,7.70
2011,09,20,07,29,7.60
2011,09,20,07,30,7.60
2011,09,20,07,31,7.60
2011,09,20,07,32,7.60
2011,09,20,07,33,7.70
2011,09,20,07,34,7.70
2011,09,20,07,35,7.70
2011,09,20,07,36,7.70
2011,09,20,07,37,7.80
2011,09,20,07,38,7.80
2011,09,20,07,39,7.90
2011,09,20,07,40,8.00
2011,09,20,07,41,8.00
2011,09,20,07,42,8.10
2011,09,20,07,43,8.10
2011,09,20,07,44,8.20
2011,09,20,07,45,8.30
2011,09,20,07,46,8.30
2011,09,20,07,47,8.30
2011,09,20,07,48,8.40
2011,09,20,07,49,8.50
2011,09,20,07,50,8.50
2011,09,20,07,51,8.60
2011,09,20,07,52,8.70
2011,09,20,07,53,8.70
2011,09,20,07,54,8.70
2011,09,20,07,55,8.80
2011,09,20,07,56,8.80
2011,09,20,07,57,8.80
2011,09,20,07,58,8.90
2011,09,20,07,59,8.90
2011,09,20,08,00,8.90
2011,09,20,08,01,8.90
2011,09,20,08,02,8.90
2011,09,20,08,03,8.90
2011,09,20,08,04,9.00
2011,09,20,08,05,9.00
2011,09,20,08,06,9.00
2011,09,20,08,07,9.00
2011,09,20,08,08,9.00
2011,09,20,08,09,9.10
2011,09,20,08,10,9.10
2011,09,20,08,11,9.10
2011,09,20,08,12,9.10
2011,09,20,08,13,9.20
2011,09,20,08,14,9.20
2011,09,20,08,15,9.20
2011,09,20,08,16,9.30
2011,09,20,08,17,9.30
2011,09,20,08,18,9.30
2011,09,20,08,19,9.30
2011,09,20,08,20,9.40
2011,09,20,08,21,9.40
2011,09,20,08,22,9.50
2011,09,20,08,23,9.50
2011,09,20,08,24,9.60
2011,09,20,08,25,9.60
2011,09,20,08,26,9.60
2011,09,20,08,27,9.70
2011,09,20,08,28,9.70
2011,09,20,08,29,9.80
2011,09,20,08,30,9.90
2011,09,20,08,31,9.90
2011,09,20,08,32,10.00
2011,09,20,08,33,10.10
2011,09,20,08,34,10.20
2011,09,20,08,35,10.20
2011,09,20,08,36,10.40
2011,09,20,08,37,10.50
2011,09,20,08,38,10.60
2011,09,20,08,39,10.70
2011,09,20,08,40,10.80
2011,09,20,08,41,10.90
2011,09,20,08,42,11.00
2011,09,20,08,43,11.10
2011,09,20,08,44,11.20
2011,09,20,08,45,11.20
2011,09,20,08,46,11.30
2011,09,20,08,47,11.40
2011,09,20,08,48,11.40
2011,09,20,08,49,11.50
2011,09,20,08,50,11.60
2011,09,20,08,51,11.70
2011,09,20,08,52,11.70
2011,09,20,08,53,11.80
2011,09,20,08,54,11.90
2011,09,20,08,55,12.00
2011,09,20,08,56,12.10
2011,09,20,08,57,12.20
2011,09,20,08,58,12.30
2011,09,20,08,59,12.50
2011,09,20,09,00,12.70
2011,09,20,09,01,12.90
2011,09,20,09,02,13.10
2011,09,20,09,03,13.30
2011,09,20,09,04,13.50
2011,09,20,09,05,13.70
2011,09,20,09,06,13.90
2011,09,20,09,07,14.10
2011,09,20,09,08,14.20
2011,09,20,09,09,14.30
2011,09,20,09,10,14.40
2011,09,20,09,11,14.50
2011,09,20,09,12,14.60
2011,09,20,09,13,14.60
2011,09,20,09,14,14.60
2011,09,20,09,15,14.70
2011,09,20,09,16,14.70
2011,09,20,09,17,14.80
2011,09,20,09,18,14.80
2011,09,20,09,19,14.80
2011,09,20,09,20,14.90
2011,09,20,09,21,14.90
2011,09,20,09,22,14.90
2011,09,20,09,23,14.90
2011,09,20,09,24,14.90
2011,09,20,09,25,14.90
2011,09,20,09,26,14.90
2011,09,20,09,27,15.00
2011,09,20,09,28,15.00
2011,09,20,09,29,15.00
2011,09,20,09,30,15.00
2011,09,20,09,31,15.10
2011,09,20,09,32,15.10
2011,09,20,09,33,15.10
2011,09,20,09,34,15.10
2011,09,20,09,35,15.20
2011,09,20,09,36,15.20
2011,09,20,09,37,15.30
2011,09,20,09,38,15.30
2011,09,20,09,39,15.30
2011,09,20,09,40,15.30
2011,09,20,09,41,15.30
2011,09,20,09,42,15.30
2011,09,20,09,43,15.30
2011,09,20,09,44,15.40
2011,09,20,09,45,15.50
2011,09,20,09,46,15.50
2011,09,20,09,47,15.60
2011,09,20,09,48,15.70
2011,09,20,09,49,15.80
2011,09,20,09,50,15.80
2011,09,20,09,51,15.90
2011,09,20,09,52,15.90
2011,09,20,09,53,15.90
2011,09,20,09,54,15.90
2011,09,20,09,55,15.80
2011,09,20,09,56,15.80
2011,09,20,09,57,15.70
2011,09,20,09,58,15.70
2011,09,20,09,59,15.70
2011,09,20,10,00,15.80
2011,09,20,10,01,15.80
2011,09,20,10,02,15.90
2011,09,20,10,03,16.00
2011,09,20,10,04,16.10
2011,09,20,10,05,16.10
2011,09,20,10,06,16.00
2011,09,20,10,07,16.00
2011,09,20,10,08,15.90
2011,09,20,10,09,15.80
2011,09,20,10,10,15.80
2011,09,20,10,11,15.80
2011,09,20,10,12,15.80
2011,09,20,10,13,15.80
2011,09,20,10,14,15.80
2011,09,20,10,15,15.80
2011,09,20,10,16,15.80
2011,09,20,10,17,15.70
2011,09,20,10,18,15.70
2011,09,20,10,19,15.60
2011,09,20,10,20,15.60
2011,09,20,10,21,15.60
2011,09,20,10,22,15.60
2011,09,20,10,23,15.60
2011,09,20,10,24,15.60
2011,09,20,10,25,15.60
2011,09,20,10,26,15.60
2011,09,20,10,27,15.70
2011,09,20,10,28,15.80
2011,09,20,10,29,15.80
2011,09,20,10,30,15.80
2011,09,20,10,31,15.80
2011,09,20,10,32,15.80
2011,09,20,10,33,15.80
2011,09,20,10,34,15.80
2011,09,20,10,35,15.80
2011,09,20,10,36,15.90
2011,09,20,10,37,15.90
2011,09,20,10,38,15.90
2011,09,20,10,39,16.00
2011,09,20,10,40,16.00
2011,09,20,10,41,16.00
2011,09,20,10,42,16.00
2011,09,20,10,43,15.90
2011,09,20,10,44,16.00
2011,09,20,10,45,16.00
2011,09,20,10,46,16.10
2011,09,20,10,47,16.10
2011,09,20,10,48,16.10
2011,09,20,10,49,16.10
2011,09,20,10,50,16.10
2011,09,20,10,51,16.20
2011,09,20,10,52,16.30
2011,09,20,10,53,16.40
2011,09,20,10,54,16.60
2011,09,20,10,55,16.70
2011,09,20,10,56,16.80
2011,09,20,10,57,16.80
2011,09,20,10,58,16.80
2011,09,20,10,59,16.80
2011,09,20,11,00,16.80
2011,09,20,11,01,16.70
2011,09,20,11,02,16.60
2011,09,20,11,03,16.60
2011,09,20,11,04,16.60
2011,09,20,11,05,16.60
2011,09,20,11,06,16.60
2011,09,20,11,07,16.70
2011,09,20,11,08,16.60
2011,09,20,11,09,16.60
2011,09,20,11,10,16.60
2011,09,20,11,11,16.60
2011,09,20,11,12,16.70
2011,09,20,11,13,16.80
2011,09,20,11,14,16.80
2011,09,20,11,15,16.80
2011,09,20,11,16,16.80
2011,09,20,11,17,16.80
2011,09,20,11,18,16.70
2011,09,20,11,19,16.70
2011,09,20,11,20,16.70
2011,09,20,11,21,16.80
2011,09,20,11,22,16.90
2011,09,20,11,23,17.00
2011,09,20,11,24,16.90
2011,09,20,11,25,17.00
2011,09,20,11,26,17.00
2011,09,20,11,27,17.10
2011,09,20,11,28,17.10
2011,09,20,11,29,17.10
2011,09,20,11,30,17.10
2011,09,20,11,31,17.10
2011,09,20,11,32,17.10
2011,09,20,11,33,17.10
2011,09,20,11,34,17.10
2011,09,20,11,35,17.00
2011,09,20,11,36,17.00
2011,09,20,11,37,17.00
2011,09,20,11,38,17.00
2011,09,20,11,39,17.10
2011,09,20,11,40,17.10
2011,09,20,11,41,17.20
2011,09,20,11,42,17.20
2011,09,20,11,43,17.20
2011,09,20,11,44,17.20
2011,09,20,11,45,17.20
2011,09,20,11,46,17.10
2011,09,20,11,47,17.10
2011,09,20,11,48,17.10
2011,09,20,11,49,17.10
2011,09,20,11,50,17.20
2011,09,20,11,51,17.20
2011,09,20,11,52,17.10
2011,09,20,11,53,17.10
2011,09,20,11,54,17.10
2011,09,20,11,55,17.20
2011,09,20,11,56,17.10
2011,09,20,11,57,17.10
2011,09,20,11,58,17.00
2011,09,20,11,59,16.90
2011,09,20,12,00,17.00
2011,09,20,12,01,17.00
2011,09,20,12,02,17.00
2011,09,20,12,03,17.00
2011,09,20,12,04,16.90
2011,09,20,12,05,16.90
2011,09,20,12,06,16.90
2011,09,20,12,07,17.00
2011,09,20,12,08,17.00
2011,09,20,12,09,17.00
2011,09,20,12,10,17.00
2011,09,20,12,11,17.10
2011,09,20,12,12,17.10
2011,09,20,12,13,17.10
2011,09,20,12,14,17.00
2011,09,20,12,15,16.90
2011,09,20,12,16,16.90
2011,09,20,12,17,16.90
2011,09,20,12,18,16.90
2011,09,20,12,19,16.90
2011,09,20,12,20,16.90
2011,09,20,12,21,16.90
2011,09,20,12,22,16.90
2011,09,20,12,23,16.90
2011,09,20,12,24,17.00
2011,09,20,12,25,17.10
2011,09,20,12,26,17.10
2011,09,20,12,27,17.10
2011,09,20,12,28,17.10
2011,09,20,12,29,17.20
2011,09,20,12,30,17.20
2011,09,20,12,31,17.10
2011,09,20,12,32,17.00
2011,09,20,12,33,16.90
2011,09,20,12,34,16.80
2011,09,20,12,35,16.80
2011,09,20,12,36,16.80
2011,09,20,12,37,16.80
2011,09,20,12,38,16.90
2011,09,20,12,39,16.90
2011,09,20,12,40,17.00
2011,09,20,12,41,17.10
2011,09,20,12,42,17.20
2011,09,20,12,43,17.30
2011,09,20,12,44,17.40
2011,09,20,12,45,17.50
2011,09,20,12,46,17.60
2011,09,20,12,47,17.80
2011,09,20,12,48,17.80
2011,09,20,12,49,17.90
2011,09,20,12,50,18.00
2011,09,20,12,51,18.00
2011,09,20,12,52,18.00
2011,09,20,12,53,18.00
2011,09,20,12,54,18.00
2011,09,20,12,55,17.90
2011,09,20,12,56,17.90
2011,09,20,12,57,18.00
2011,09,20,12,58,18.00
2011,09,20,12,59,18.10
2011,09,20,13,00,18.20
2011,09,20,13,01,18.20
2011,09,20,13,02,18.10
2011,09,20,13,03,18.10
2011,09,20,13,04,18.10
2011,09,20,13,05,18.10
2011,09,20,13,06,18.10
2011,09,20,13,07,18.00
2011,09,20,13,08,18.00
2011,09,20,13,09,18.00
2011,09,20,13,10,17.90
2011,09,20,13,11,18.00
2011,09,20,13,12,18.00
2011,09,20,13,13,18.00
2011,09,20,13,14,17.90
2011,09,20,13,15,17.90
2011,09,20,13,16,18.00
2011,09,20,13,17,18.10
2011,09,20,13,18,18.10
2011,09,20,13,19,18.10
2011,09,20,13,20,18.20
2011,09,20,13,21,18.20
2011,09,20,13,22,18.30
2011,09,20,13,23,18.40
2011,09,20,13,24,18.60
2011,09,20,13,25,18.60
2011,09,20,13,26,18.60
2011,09,20,13,27,18.50
2011,09,20,13,28,18.40
2011,09,20,13,29,18.30
2011,09,20,13,30,18.30
2011,09,20,13,31,18.30
2011,09,20,13,32,18.40
2011,09,20,13,33,18.50
2011,09,20,13,34,18.50
2011,09,20,13,35,18.60
2011,09,20,13,36,18.60
2011,09,20,13,37,18.70
2011,09,20,13,38,18.80
2011,09,20,13,39,18.80
2011,09,20,13,40,18.80
2011,09,20,13,41,18.90
2011,09,20,13,42,18.90
2011,09,20,13,43,19.00
2011,09,20,13,44,19.10
2011,09,20,13,45,19.10
2011,09,20,13,46,19.10
2011,09,20,13,47,19.10
2011,09,20,13,48,19.10
2011,09,20,13,49,19.00
2011,09,20,13,50,19.00
2011,09,20,13,51,19.00
2011,09,20,13,52,19.10
2011,09,20,13,53,19.10
2011,09,20,13,54,19.10
2011,09,20,13,55,19.30
2011,09,20,13,56,19.40
2011,09,20,13,57,19.50
2011,09,20,13,58,19.60
2011,09,20,13,59,19.60
2011,09,20,14,00,19.60
2011,09,20,14,01,19.60
2011,09,20,14,02,19.60
2011,09,20,14,03,19.60
2011,09,20,14,04,19.50
2011,09,20,14,05,19.50
2011,09,20,14,06,19.40
2011,09,20,14,07,19.40
2011,09,20,14,08,19.30
2011,09,20,14,09,19.30
2011,09,20,14,10,19.30
2011,09,20,14,11,19.20
2011,09,20,14,12,19.20
2011,09,20,14,13,19.20
2011,09,20,14,14,19.20
2011,09,20,14,15,19.20
2011,09,20,14,16,19.20
2011,09,20,14,17,19.20
2011,09,20,14,18,19.20
2011,09,20,14,19,19.20
2011,09,20,14,20,19.30
2011,09,20,14,21,19.30
2011,09,20,14,22,19.30
2011,09,20,14,23,19.30
2011,09,20,14,24,19.30
2011,09,20,14,25,19.30
2011,09,20,14,26,19.40
2011,09,20,14,27,19.50
2011,09,20,14,28,19.60
2011,09,20,14,29,19.80
2011,09,20,14,30,19.90
2011,09,20,14,31,19.90
2011,09,20,14,32,19.90
2011,09,20,14,33,19.90
2011,09,20,14,34,19.80
2011,09,20,14,35,19.90
2011,09,20,14,36,19.90
2011,09,20,14,37,19.80
2011,09,20,14,38,19.80
2011,09,20,14,39,19.90
2011,09,20,14,40,19.90
2011,09,20,14,41,20.00
2011,09,20,14,42,20.00
2011,09,20,14,43,20.10
2011,09,20,14,44,20.10
2011,09,20,14,45,20.10
2011,09,20,14,46,20.10
2011,09,20,14,47,20.10
2011,09,20,14,48,20.10
2011,09,20,14,49,20.10
2011,09,20,14,50,20.10
2011,09,20,14,51,20.10
2011,09,20,14,52,20.10
2011,09,20,14,53,20.20
2011,09,20,14,54,20.30
2011,09,20,14,55,20.50
2011,09,20,14,56,20.60
2011,09,20,14,57,20.60
2011,09,20,14,58,20.60
2011,09,20,14,59,20.40
2011,09,20,15,00,20.40
2011,09,20,15,01,20.30
2011,09,20,15,02,20.30
2011,09,20,15,03,20.40
2011,09,20,15,04,20.40
2011,09,20,15,05,20.40
2011,09,20,15,06,20.30
2011,09,20,15,07,20.20
2011,09,20,15,08,20.20
2011,09,20,15,09,20.30
2011,09,20,15,10,20.20
2011,09,20,15,11,20.20
2011,09,20,15,12,20.30
2011,09,20,15,13,20.20
2011,09,20,15,14,20.20
2011,09,20,15,15,20.20
2011,09,20,15,16,20.20
2011,09,20,15,17,20.20
2011,09,20,15,18,20.20
2011,09,20,15,19,20.20
2011,09,20,15,20,20.20
2011,09,20,15,21,20.10
2011,09,20,15,22,20.00
2011,09,20,15,23,19.90
2011,09,20,15,24,19.80
2011,09,20,15,25,19.80
2011,09,20,15,26,19.80
2011,09,20,15,27,19.80
2011,09,20,15,28,19.70
2011,09,20,15,29,19.70
2011,09,20,15,30,19.70
2011,09,20,15,31,19.60
2011,09,20,15,32,19.60
2011,09,20,15,33,19.50
2011,09,20,15,34,19.40
2011,09,20,15,35,19.30
2011,09,20,15,36,19.20
2011,09,20,15,37,19.10
2011,09,20,15,38,19.10
2011,09,20,15,39,19.00
2011,09,20,15,40,19.00
2011,09,20,15,41,19.00
2011,09,20,15,42,19.00
2011,09,20,15,43,19.00
2011,09,20,15,44,18.90
2011,09,20,15,45,18.90
2011,09,20,15,46,18.90
2011,09,20,15,47,19.00
2011,09,20,15,48,19.10
2011,09,20,15,49,19.10
2011,09,20,15,50,19.20
2011,09,20,15,51,19.20
2011,09,20,15,52,19.20
2011,09,20,15,53,19.20
2011,09,20,15,54,19.20
2011,09,20,15,55,19.30
2011,09,20,15,56,19.30
2011,09,20,15,57,19.40
2011,09,20,15,58,19.50
2011,09,20,15,59,19.60
2011,09,20,16,00,19.70
2011,09,20,16,01,19.70
2011,09,20,16,02,19.70
2011,09,20,16,03,19.70
2011,09,20,16,04,19.80
2011,09,20,16,05,19.80
2011,09,20,16,06,19.80
2011,09,20,16,07,19.80
2011,09,20,16,08,19.80
2011,09,20,16,09,19.80
2011,09,20,16,10,19.80
2011,09,20,16,11,19.80
2011,09,20,16,12,19.80
2011,09,20,16,13,19.80
2011,09,20,16,14,19.70
2011,09,20,16,15,19.60
2011,09,20,16,16,19.50
2011,09,20,16,17,19.40
2011,09,20,16,18,19.40
2011,09,20,16,19,19.40
2011,09,20,16,20,19.30
2011,09,20,16,21,19.20
2011,09,20,16,22,19.10
2011,09,20,16,23,19.10
2011,09,20,16,24,19.00
2011,09,20,16,25,18.90
2011,09,20,16,26,18.90
2011,09,20,16,27,18.90
2011,09,20,16,28,18.80
2011,09,20,16,29,18.80
2011,09,20,16,30,18.80
2011,09,20,16,31,18.70
2011,09,20,16,32,18.70
2011,09,20,16,33,18.70
2011,09,20,16,34,18.70
2011,09,20,16,35,18.70
2011,09,20,16,36,18.70
2011,09,20,16,37,18.70
2011,09,20,16,38,18.70
2011,09,20,16,39,18.70
2011,09,20,16,40,18.70
2011,09,20,16,41,18.70
2011,09,20,16,42,18.80
2011,09,20,16,43,18.80
2011,09,20,16,44,18.80
2011,09,20,16,45,18.80
2011,09,20,16,46,18.80
2011,09,20,16,47,18.80
2011,09,20,16,48,18.80
2011,09,20,16,49,18.90
2011,09,20,16,50,18.90
2011,09,20,16,51,18.90
2011,09,20,16,52,18.90
2011,09,20,16,53,18.90
2011,09,20,16,54,18.90
2011,09,20,16,55,18.90
2011,09,20,16,56,18.90
2011,09,20,16,57,18.90
2011,09,20,16,58,18.90
2011,09,20,16,59,18.90
2011,09,20,17,00,18.80
2011,09,20,17,01,18.80
2011,09,20,17,02,18.80
2011,09,20,17,03,18.80
2011,09,20,17,04,18.80
2011,09,20,17,05,18.90
2011,09,20,17,06,18.90
2011,09,20,17,07,18.90
2011,09,20,17,08,18.90
2011,09,20,17,09,18.90
2011,09,20,17,10,18.80
2011,09,20,17,11,18.80
2011,09,20,17,12,18.80
2011,09,20,17,13,18.80
2011,09,20,17,14,18.90
2011,09,20,17,15,18.90
2011,09,20,17,16,18.90
2011,09,20,17,17,18.90
2011,09,20,17,18,18.90
2011,09,20,17,19,19.00
2011,09,20,17,20,19.00
2011,09,20,17,21,19.00
2011,09,20,17,22,19.00
2011,09,20,17,23,19.10
2011,09,20,17,24,19.10
2011,09,20,17,25,19.00
2011,09,20,17,26,19.00
2011,09,20,17,27,19.00
2011,09,20,17,28,18.90
2011,09,20,17,29,18.90
2011,09,20,17,30,18.90
2011,09,20,17,31,18.90
2011,09,20,17,32,19.00
2011,09,20,17,33,19.00
2011,09,20,17,34,19.10
2011,09,20,17,35,19.10
2011,09,20,17,36,19.10
2011,09,20,17,37,19.20
2011,09,20,17,38,19.20
2011,09,20,17,39,19.30
2011,09,20,17,40,19.30
2011,09,20,17,41,19.40